This demonstration page uses our WeatherBlox Daily Observations layout. Learn more.

Left ArrowRight Arrow

Hourly Observations for December 29, 2019

Temp ( °F °C ) Dew Point ( °F °C ) Humidity (%) Winds ( mph kmh ) Pressure ( in mb ) Visibility ( mi km ) Precip ( " mm )
12:52 am 00:52 Cloudy with Rain 37 2.8 37 2.8 100 100 NNW 9 15 29.45 997 1 2 0.11 2.79
1:45 am 01:45 Cloudy with Rain 37 2.8 36 2.2 96 96 NNW 7 11 29.46 998 1 2 0.05 1.27
1:52 am 01:52 Cloudy with Light Rain 37 2.8 37 2.8 100 100 Calm 29.43 997 1 2 0.06 1.52
2:11 am 02:11 Cloudy with Mist and Fog 37 2.8 36 2.2 96 96 NNW 8 13 29.46 998 1 2 0.01 0.25
2:52 am 02:52 Cloudy with Mist and Fog 37 2.8 36 2.2 96 96 WNW 5 7 29.44 997 1 2 0.01 0.25
3:52 am 03:52 Cloudy with Mist and Fog 36 2.2 35 1.7 97 97 WSW 7 11 29.45 997 1 2 0.00 0.00
4:52 am 04:52 Cloudy with Drizzle 36 2.2 35 1.7 97 97 SW 9 15 29.46 998 1 2 0.00 0.00
5:52 am 05:52 Cloudy with Drizzle 35 1.7 34 1.1 96 96 SW 10 17 29.47 998 1 2 0.00 0.00
6:05 am 06:05 Cloudy with Drizzle 35 1.7 34 1.1 96 96 SW 12 19 29.49 999 5 8 0.00 0.00
6:23 am 06:23 Cloudy with Drizzle 35 1.7 34 1.1 96 96 WSW 9 15 29.50 999 5 8 0.00 0.00
6:52 am 06:52 Cloudy with Mist and Fog 35 1.7 34 1.1 96 96 SW 10 17 29.48 998 6 10 0.00 0.00
7:52 am 07:52 Cloudy 35 1.7 32 0 89 89 SW 13 20 29.50 999 10 16 0.00 0.00
8:52 am 08:52 Cloudy 33 0.6 30 -1.1 89 89 WSW 14 22 29.50 999 10 16 0.00 0.00
9:52 am 09:52 Cloudy 33 0.6 28 -2.2 82 82 WSW 12 19 29.51 999 10 16 0.00 0.00
10:18 am 10:18 Cloudy 33 0.6 28 -2.2 82 82 WSW 12 19 29.54 1000 10 16 0.00 0.00
10:52 am 10:52 Cloudy 32 0 28 -2.2 85 85 SW 14 22 29.52 1000 10 16 0.00 0.00
11:52 am 11:52 Cloudy 32 0 27 -2.8 82 82 WSW 13 20 29.51 999 10 16 0.00 0.00
12:43 pm 12:43 Cloudy 32 0 27 -2.8 82 82 WSW 14 22 29.52 1000 10 16 0.00 0.00
12:52 pm 12:52 Cloudy 32 0 27 -2.8 82 82 WSW 14 22 29.49 999 10 16 0.00 0.00
1:44 pm 13:44 Cloudy 31 -0.6 26 -3.3 82 82 WSW 13 20 29.51 999 10 16 0.00 0.00
1:52 pm 13:52 Cloudy with Light Snow 31 -0.6 26 -3.3 82 82 WSW 12 19 29.48 998 10 16 0.00 0.00
2:52 pm 14:52 Cloudy 31 -0.6 27 -2.8 85 85 W 10 17 29.48 998 10 16 0.00 0.00
3:18 pm 15:18 Cloudy with Mist and Fog 30 -1.1 27 -2.8 88 88 WSW 9 15 29.52 1000 6 10 0.00 0.00
3:36 pm 15:36 Cloudy 31 -0.6 27 -2.8 85 85 WSW 8 13 29.52 1000 10 16 0.00 0.00
3:52 pm 15:52 Cloudy 31 -0.6 26 -3.3 82 82 W 10 17 29.49 999 10 16 0.00 0.00
4:52 pm 16:52 Cloudy 31 -0.6 25 -3.9 79 79 W 12 19 29.50 999 10 16 0.00 0.00
5:52 pm 17:52 Cloudy with Light Snow 31 -0.6 25 -3.9 79 79 WNW 18 30 29.51 999 7 11 0.00 0.00
6:04 pm 18:04 Cloudy with Light Snow 30 -1.1 25 -3.9 82 82 WNW 16 26 29.55 1001 2 3 0.00 0.00
6:33 pm 18:33 Cloudy with Light Snow 29 -1.7 25 -3.9 85 85 NW 18 30 29.55 1001 2 3 0.00 0.00
6:42 pm 18:42 Cloudy with Light Snow 29 -1.7 25 -3.9 85 85 WNW 14 22 29.56 1001 2 2 0.00 0.00
6:52 pm 18:52 Cloudy with Light Snow 28 -2.2 25 -3.9 88 88 WNW 10 17 29.52 1000 2 2 0.01 0.25
6:57 pm 18:57 Cloudy with Light Snow 28 -2.2 25 -3.9 88 88 WNW 12 19 29.56 1001 1 2 0.00 0.00
7:52 pm 19:52 Cloudy with Light Snow 27 -2.8 24 -4.4 89 89 WNW 14 22 29.53 1000 2 2 0.01 0.25
8:52 pm 20:52 Cloudy with Light Snow 27 -2.8 21 -6.1 78 78 WNW 15 24 29.53 1000 2 2 0.00 0.00
8:59 pm 20:59 Cloudy with Light Snow 27 -2.8 21 -6.1 78 78 NW 18 30 29.57 1001 5 8 0.00 0.00
9:12 pm 21:12 Windy with Snow Likely 27 -2.8 21 -6.1 78 78 WNW 23 37 29.57 1001 3 4 0.00 0.00
9:19 pm 21:19 Windy with Snow Likely 26 -3.3 21 -6.1 81 81 NW 21 33 29.58 1002 3 5 0.00 0.00
9:44 pm 21:44 Windy with Snow Likely 26 -3.3 22 -5.6 84 84 WNW 21 33 29.59 1002 2 3 0.00 0.00
9:52 pm 21:52 Windy with Snow Likely 25 -3.9 21 -6.1 85 85 WNW 23 37 29.55 1001 2 3 0.00 0.00
10:52 pm 22:52 Cloudy with Light Snow 25 -3.9 20 -6.7 81 81 WNW 18 30 29.56 1001 3 5 0.00 0.00
11:52 pm 23:52 Windy with Snow Likely 25 -3.9 19 -7.2 78 78 WNW 25 41 29.57 1001 4 6 0.00 0.00

Powered by AerisWeather